EW9951 Weather Reports


time (UTC)temp
F
wind
direction
speed
knots
gust
knots
rain 1hr
in
rain 24hr
in
rain mn
in
humidity
%
barometer
mb
20260507211552 65 345 7.0 13.0 0.00 0.00 0.00 83 1015.4
20260507210050 65 327 7.8 12.2 0.00 0.00 0.00 82 1015.4
20260507204549 64 286 8.7 15.6 0.00 0.00 0.00 83 1015.6
20260507203046 65 271 7.8 13.9 0.00 0.00 0.00 82 1015.6
20260507201559 65 276 7.8 14.8 0.00 0.00 0.00 81 1015.7
20260507200055 65 299 9.6 13.9 0.00 0.00 0.00 82 1015.7
20260507194545 64 293 8.7 13.0 0.00 0.00 0.00 83 1015.8
20260507193048 65 278 9.6 12.2 0.00 0.00 0.00 82 1015.7
20260507191544 65 282 7.0 12.2 0.00 0.00 0.00 81 1015.9
20260507190047 65 276 7.0 11.3 0.00 0.00 0.00 81 1016.0
20260507184540 65 146 7.8 12.2 0.00 0.00 0.00 82 1016.1
20260507183042 65 290 5.2 13.0 0.00 0.00 0.00 83 1016.3
20260507181539 64 302 6.1 11.3 0.00 0.00 0.00 83 1016.4
20260507180035 64 270 3.5 7.8 0.00 0.00 0.00 84 1016.4
20260507174547 64 262 6.1 8.7 0.00 0.00 0.00 84 1016.5
20260507173036 63 295 5.2 7.8 0.00 0.00 0.00 84 1016.5
20260507171529 63 303 6.1 9.6 0.00 0.00 0.00 85 1016.6
20260507170027 63 326 3.5 7.0 0.00 0.00 0.00 85 1016.6
20260507164524 63 292 3.5 7.8 0.00 0.00 0.00 86 1016.7
20260507163021 63 328 2.6 7.0 0.00 0.00 0.00 86 1016.7
20260507161518 62 299 0.9 8.7 0.00 0.00 0.00 86 1016.8
20260507160016 62 17 4.3 7.0 0.00 0.00 0.00 86 1016.9
20260507154513 62 305 4.3 7.0 0.00 0.00 0.00 87 1016.8
20260507153009 62 278 3.5 6.1 0.00 0.00 0.00 87 1016.8
20260507151508 62 311 0.0 5.2 0.00 0.00 0.00 87 1016.8
20260507150005 62 317 3.5 7.0 0.00 0.00 0.00 87 1016.6
20260507144503 62 301 1.7 4.3 0.00 0.00 0.00 87 1016.5
20260507143103 62 14 0.0 0.9 0.00 0.00 0.00 88 1016.5
20260507141605 62 29 0.0 1.7 0.00 0.00 0.00 88 1016.4
20260507140059 61 31 0.0 1.7 0.00 0.00 0.00 89 1016.3
20260507134600 61 23 0.9 2.6 0.00 0.00 0.00 89 1016.2
20260507133054 61 33 0.0 4.3 0.00 0.00 0.00 89 1016.1
20260507131552 60 22 1.7 2.6 0.00 0.00 0.00 90 1016.1
20260507130100 60 15 0.9 2.6 0.00 0.00 0.00 90 1016.1
20260507124607 60 12 0.9 1.7 0.00 0.00 0.00 90 1015.8
20260507123104 60 10 0.9 2.6 0.00 0.00 0.00 90 1015.8
20260507121558 60 347 0.0 1.7 0.00 0.00 0.00 89 1015.8
20260507120048 60 294 0.0 1.7 0.00 0.00 0.00 89 1015.8
20260507114552 61 347 1.7 4.3 0.00 0.00 0.00 89 1015.7
20260507113047 60 335 1.7 4.3 0.00 0.00 0.00 89 1015.6
20260507111545 60 303 1.7 5.2 0.00 0.00 0.00 90 1015.8
20260507110045 60 354 2.6 3.5 0.00 0.00 0.00 90 1015.8
20260507104544 60 345 1.7 4.3 0.00 0.00 0.00 90 1015.9
20260507103042 60 350 1.7 3.5 0.00 0.00 0.00 91 1016.1
20260507101550 60 348 1.7 2.6 0.00 0.00 0.00 91 1016.2
20260507100050 60 310 0.9 2.6 0.00 0.00 0.00 91 1016.2
20260507094539 60 310 0.0 0.9 0.00 0.00 0.00 91 1016.3
20260507093037 60 310 0.0 0.0 0.00 0.00 0.00 91 1016.4
20260507091536 60 310 0.0 1.7 0.00 0.00 0.00 91 1016.5
20260507090034 61 347 0.0 0.0 0.00 0.00 0.00 90 1016.6
20260507084531 61 347 0.0 0.0 0.00 0.00 0.00 90 1016.8
20260507083035 61 347 0.0 0.0 0.00 0.00 0.00 90 1016.9
20260507081528 61 312 1.7 2.6 0.00 0.00 0.00 90 1017.1
20260507080028 61 14 0.0 2.6 0.00 0.00 0.00 90 1017.2
20260507074527 61 4 0.9 2.6 0.00 0.00 0.00 90 1017.2
20260507073025 61 315 0.9 3.5 0.00 0.00 0.00 90 1017.1
20260507071523 61 354 0.9 3.5 0.00 0.00 0.00 90 1017.2
20260507070027 62 336 0.9 2.6 0.00 0.00 0.00 89 1017.3
20260507064533 62 332 1.7 2.6 0.00 0.00 0.00 89 1017.4
20260507063027 62 335 0.9 3.5 0.00 0.00 0.00 89 1017.4
20260507061520 62 354 1.7 3.5 0.00 0.00 0.00 89 1017.5
20260507060021 62 330 1.7 3.5 0.00 0.00 0.00 89 1017.4
20260507054523 62 340 4.3 7.0 0.00 0.00 0.00 89 1017.5
20260507053018 62 305 3.5 7.0 0.00 0.00 0.00 89 1017.5
20260507051518 62 304 1.7 7.8 0.00 0.00 0.00 89 1017.5
20260507050024 62 316 4.3 7.8 0.00 0.00 0.00 88 1017.4
20260507044516 62 301 3.5 7.0 0.00 0.00 0.00 88 1017.3
20260507043016 62 354 2.6 8.7 0.00 0.00 0.00 88 1017.3
20260507041527 62 328 6.1 8.7 0.00 0.00 0.00 88 1017.2
20260507040014 62 328 7.8 10.4 0.00 0.00 0.00 88 1017.2
20260507034517 62 347 7.0 11.3 0.00 0.00 0.00 87 1017.0
20260507033014 63 359 4.3 9.6 0.00 0.00 0.00 88 1016.9
20260507031523 63 299 5.2 9.6 0.00 0.00 0.00 87 1016.8
20260507030014 63 320 5.2 11.3 0.00 0.00 0.00 88 1016.6
20260507024513 63 334 6.1 12.2 0.00 0.00 0.00 87 1016.5
20260507023011 63 296 10.4 14.8 0.00 0.00 0.00 87 1016.4
20260507021511 63 328 5.2 12.2 0.00 0.00 0.00 87 1016.4
20260507020011 63 330 7.8 11.3 0.00 0.00 0.00 87 1016.3
20260507014516 63 289 8.7 13.9 0.00 0.00 0.00 86 1016.3
20260507013014 64 322 8.7 13.0 0.00 0.00 0.00 85 1016.2
20260507011516 64 339 9.6 15.6 0.00 0.00 0.00 86 1016.2
20260507010008 64 308 11.3 15.6 0.00 0.00 0.00 85 1016.2
20260507004517 64 293 9.6 15.6 0.00 0.00 0.00 84 1016.2
20260507003006 65 274 6.1 12.2 0.00 0.00 0.00 83 1016.2
20260507001507 65 311 7.0 13.9 0.00 0.00 0.00 83 1016.1
20260507000006 65 288 9.6 16.5 0.00 0.00 0.00 83 1016.0
20260506234507 65 310 11.3 15.6 0.00 0.00 0.00 83 1016.0
20260506233005 65 338 7.0 16.5 0.00 0.00 0.00 83 1016.0
20260506231509 65 302 8.7 15.6 0.00 0.00 0.00 81 1016.1
20260506230002 66 310 10.4 15.6 0.00 0.00 0.00 81 1016.1
20260506224501 65 305 9.6 15.6 0.00 0.00 0.00 81 1016.2
20260506223100 65 308 10.4 16.5 0.00 0.00 0.00 81 1016.3
20260506221558 64 280 10.4 15.6 0.00 0.00 0.00 81 1016.5
20260506220057 64 314 10.4 14.8 0.00 0.00 0.00 80 1016.6
20260506214556 64 281 10.4 16.5 0.00 0.00 0.00 79 1016.7
20260506213118 65 281 9.6 13.0 0.00 0.00 0.00 79 1016.9